#timestamp,LO_Frequency,Hit,StdDev 
1655578815.3,286046998.7,N
1655578835.1,286047000.8,N
1655578855.9,286047001.0,N
1655578875.7,286047000.4,N
1655578895.5,286046999.9,N
1655578915.4,286047001.2,N
1655578935.2,286046998.5,N
1655578955.0,286046998.3,N
1655578955.9,286046998.3,N
1655578975.8,286046998.8,N
1655578995.6,286046998.7,N
1655579015.5,286047001.2,N
1655579035.3,286047000.8,N
1655579055.1,286046999.7,N
1655579075.9,286047000.8,N
1655579095.7,286047001.0,N
1655579115.5,286047000.1,N
1655579135.4,286046999.9,N
1655579155.2,286047000.3,N
1655579175.1,286046998.4,N
1655579176.0,286046998.4,N
1655579195.8,286046998.6,N
1655579215.6,286046998.3,N
1655579235.5,286047000.7,N
1655579255.3,286047000.8,N
1655579275.1,286046996.6,N
1655579295.9,286046997.5,N
1655579315.7,286046997.1,N
1655579335.6,286046996.6,N
1655579355.4,286046999.2,N
1655579375.2,286046999.1,N
1655579395.1,286046998.6,N
1655579396.0,286046998.6,N
1655579415.8,286047000.9,N
1655579435.7,286047001.2,N
1655579455.5,286047001.2,N
1655579475.3,286046998.5,N
1655579495.2,286047000.8,N
1655579515.9,286047001.2,N
1655579535.7,286047000.6,N
1655579555.6,286046999.9,N
1655579575.4,286047000.7,N
1655579595.2,286047000.0,N
1655579615.1,286047000.7,N
1655579616.0,286047000.7,N
1655579635.8,286046998.7,N
1655579655.7,286046999.4,N
1655579675.5,286046998.1,N
1655579695.3,286046999.4,N
1655579715.2,286046998.1,N
1655579735.0,286046997.0,N
1655579735.9,286046997.0,N
1655579755.8,286046998.3,N
1655579775.6,286046999.2,N
1655579795.4,286046999.3,N
1655579815.3,286046996.9,N
1655579835.1,286046999.5,N
1655579855.9,286046998.4,N
1655579875.7,286046998.5,N
1655579895.5,286046998.2,N
1655579915.4,286046998.8,N
1655579935.2,286046997.2,N
1655579955.0,286046997.1,N
1655579955.9,286046997.1,N
1655580005.8,286046995.0,E
1655580015.7,286046998.5,N
1655580035.6,286047002.0,P
1655580055.4,286047002.1,N
1655580075.3,286047002.4,N
1655580095.1,286047002.1,N
1655580096.0,286047002.1,N
1655580115.8,286047001.8,N
1655580135.7,286047001.9,N
1655580155.5,286047001.3,N
1655580175.3,286047001.5,N
1655580195.2,286047003.7,Y
1655580215.0,286047002.6,P
1655580215.9,286047002.6,P
1655580235.8,286046999.7,N
1655580255.6,286046999.7,N
1655580275.4,286047002.7,N
1655580295.3,286046999.8,N
1655580315.1,286046999.7,N
1655580335.9,286047002.6,N
1655580355.7,286047004.4,Y
1655580375.5,286047000.0,P
1655580395.4,286047002.8,P
1655580415.2,286046999.9,N
1655580435.0,286047001.1,N
1655580436.0,286047001.1,N
1655580455.8,286047000.7,N
1655580475.6,286047000.8,N
1655580495.5,286047000.8,N
1655580515.3,286046998.6,N
1655580535.2,286046996.9,Y
1655580555.9,286046997.1,P
1655580575.7,286046998.7,N
1655580595.6,286046998.6,N
1655580615.4,286046998.2,N
1655580635.2,286047000.6,N
1655580655.1,286047000.0,N
1655580656.0,286047000.0,N
1655580675.8,286047000.7,N
1655580695.7,286046999.0,N
1655580715.5,286046998.8,N
1655580735.3,286046998.9,N
1655580755.2,286046998.8,N
1655580775.0,286046998.3,N
1655580775.9,286046998.3,N
1655580795.7,286046999.3,N
1655580815.6,286046996.8,Y
1655580835.4,286046998.9,P
1655580855.3,286046999.3,P
1655580875.1,286046996.6,P
1655580876.0,286046996.6,Y
1655580895.8,286047001.1,P
1655580915.7,286047000.5,N
1655580935.5,286047000.1,N
1655580955.4,286046999.9,N
1655580975.2,286047000.1,N
1655580995.0,286047000.1,N
1655580995.9,286047000.1,N
1655581015.8,286047000.4,N
1655581035.6,286047002.4,Y
1655581055.4,286047002.7,P
1655581075.3,286047002.4,N
1655581095.1,286047002.7,N
1655581115.9,286047000.2,N
1655581135.7,286047000.1,N
1655581155.5,286046999.8,N
1655581175.4,286047002.7,N
1655581195.2,286047000.4,N
1655581215.0,286046999.9,N
1655581215.9,286046999.9,N
1655581235.8,286047000.5,N
1655581255.6,286046999.9,N
1655581275.5,286046999.9,N
1655581295.3,286046999.9,N
1655581315.1,286047000.6,N
1655581335.9,286046999.9,N
1655581355.7,286046998.5,N
1655581375.6,286046998.3,N
1655581395.4,286046998.6,N
1655581415.2,286046998.4,N
1655581435.1,286046998.2,N
1655581436.0,286046998.2,N
1655581455.8,286046998.3,N
1655581475.6,286046998.1,N
1655581495.5,286047000.8,N
1655581515.3,286046998.6,N
1655581535.2,286046999.1,N
1655581555.9,286046996.6,N
1655581575.7,286046996.9,N
1655581595.6,286046999.4,N
1655581615.4,286046998.6,N
1655581635.2,286046999.1,N
1655581655.1,286046999.5,N
1655581656.0,286046999.5,N
1655581675.8,286046998.4,N
1655581695.7,286046998.2,N
1655581715.5,286046999.6,N
1655581735.3,286046999.6,N
1655581755.2,286046999.2,N
1655581775.0,286046999.6,N
1655581775.9,286046999.6,N
1655581795.8,286046999.3,N
1655581815.6,286046999.3,N
1655581835.4,286046998.5,N
1655581855.3,286046998.5,N
1655581875.1,286046998.2,N
1655581895.8,286046998.8,N
1655581915.7,286046998.5,N
1655581935.5,286046996.6,Y
1655581955.4,286046998.1,P
1655581975.2,286046998.5,P
1655581995.0,286047000.5,N
1655581995.9,286047000.5,N
1655582015.8,286047000.3,N
1655582035.6,286046998.2,N
1655582055.5,286046998.8,N
1655582075.3,286046999.3,N
1655582095.1,286046998.3,N
1655582115.9,286046998.7,N
1655582135.7,286046998.6,N
1655582155.5,286046999.4,N
1655582175.4,286046999.0,N
1655582195.2,286046998.9,N
1655582215.1,286046999.0,N
1655582216.0,286046999.0,N
1655582235.8,286047000.3,N
1655582255.6,286047000.9,N
1655582275.5,286046998.5,N
1655582295.3,286047001.1,N
1655582315.1,286046998.6,N
1655582335.9,286046998.3,N
1655582355.7,286046998.8,N
1655582375.6,286046998.7,N
1655582395.4,286046998.7,N
